DELTA 1 DEB, 10653

Orbit data source: Space-Track

DELTA 1 DEB, 10653 is space debris in SSO originally from a launch on Thu, 29 Jul 1976 UTC launched from the Air Force Western Test Range (AFWTR). Debris objects in space refer to the collection of defunct objects orbiting the Earth. Examples of debris include non-operational satellites, rocket bodies, and fragments generated from explosions, collisions, or faulty payload assembly.

Loading next visibility...
Identifier
10653, 1976-077P
Orbit
SSO
Country
Flag of USUS
Related business
Manufacturer
Unknown
Mission
Spacecraft
Bus & Motor
Unknown
Mass
Unknown
Launch date (UTC)
1976-07-29 (50 years ago)
Launch vehicle
Unknown
Launch site
Air Force Western Test Range (AFWTR)
Object type
Payload
Rocket body
Debris
Shape & HBR
Unknown shape, 0.3 m
Radar Cross Section
Medium (>0.1 m² and <1 m²)

Expand to show TLE details & history
Last TLE update: 6 hours ago

TLE from 6 hours ago
0 DELTA 1 DEB
1 10653U 76077P   26100.54640141  .00000106  00000-0  13557-2 0  9996
2 10653 102.6376 219.7391 0129243 180.9688 246.3917 12.24272198220852
Epoch: 2026-04-10T13:06Z
TLE epoch observation values (Epoch: 2026-04-10T13:06:49.081Z)
Latitude
63.14891°
Longitude
158.10393°
Altitude
1,626.897 km
Speed
7.045 km/s
True Right ascension
12h 54m 20s
True Declination
63° 01' 31"
Sunlit
Object was in daylight at epoch
Visualization orbit readout
Latitude
Unknown
Longitude
Unknown
Altitude
Unknown
Speed
Unknown
Apparent Right ascension
Unknown
Apparent Declination
Unknown
Sunlit
N/A
Visualization observer readout
Local Sidereal Time
01:15:22
Azimuth
Unknown
Elevation
Unknown
Doppler factor
Unknown
Orbital elements
Apogee altitude
1,674.366 km
Perigee altitude
1,468.876 km
Semi-major axis
7,949.758 km
Eccentricity
0.01292
Inclination
102.6376°
RAAN
219.7391°
Arg. of periapsis
180.9688°
True anomaly
245.04349°
Mean anomaly
246.3917°
Eccentric anomaly
245.71671°
Mean motion
3.06205 °/min
Orbital period
117.57 mins
BSTAR
0.0013557
Loading maneuver chart data...
Computing Atmospheric mass density...
Loading historical data...
Loading historical data...
Loading historical data...
Loading historical data...
Loading historical data...
Loading historical data...
Loading historical data...

Documentation

Showing up to 5 results
|